Content
SEND FEEDBACK

Daily
Averages
Monthly
Summary
Croatia

RAB, CROATIA


Home > Europe > Croatia
Elevation: 20 feet     Latitude: 44 45N     Longitude: 014 47E

WEATHER
 
SELECT A DAY
Number of Records: 270,651;   Date Range: 1/10/97 - 7/20/14
 
SHARE

PRINT THIS DATA

[ ← Previous Day ]
WEATHER ALMANAC - JANUARY 31, 2013
[ Next Day → ]
[ °C ]   °F
Weather ElementAverageHighLow
Temperature45.1 °F50 °F (11:30 am)39.2 °F (10:30 pm)
Dewpoint41 °F42.8 °F (9:30 am)37.4 °F (10:30 pm)
Humidity84.5 %93 % (12:30 am)63 % (12:00 pm)
Barometer30.13 in30.22 in (11:00 am)30.04 in (1:00 am)
Wind Speed3.6 mph8.1 mph (12:30 pm)
Weather ElementAverage
Visibility5.4 mi
Wind DirectionESE (124.6 °)

Weather ElementTotal
Precipitation---
Heating Degree Days20.4 (Base 65)
Averaged from 64 records on January 31, 2013
WEATHER CONDITIONS BREAKOUT
WIND DIRECTION BREAKOUT
WEATHER BY HOUR - JANUARY 31, 2013
[ °C ]   °F
Local TimeTemperatureDewpointHumidityBarometerVisibilityWind DirectionWind SpeedGust SpeedPrecipitationEventsConditions
12:30 AM42.8 °F41.0 °F93 %30.06 in4.3 miVariable2.3 mphOvercast
1:00 AM43.0 °F40.0 °F87 %30.06 in4.0 miNE (40°)2.2 mphMist
1:00 AM42.8 °F41.0 °F93 %30.04 in4.3 miVariable1.2 mphOvercast
1:30 AM42.8 °F41.0 °F93 %30.04 in4.3 miVariable1.2 mphOvercast
2:00 AM42.8 °F41.0 °F93 %30.04 in4.3 miVariable2.3 mphOvercast
2:30 AM42.8 °F41.0 °F93 %30.06 in4.3 miVariable2.3 mphOvercast
3:00 AM42.8 °F41.0 °F93 %30.06 in4.3 miVariable1.2 mphOvercast
3:30 AM42.8 °F41.0 °F93 %30.06 in4.3 miVariable1.2 mphOvercast
4:00 AM42.8 °F41.0 °F93 %30.09 in4.3 miNorth (350°)4.6 mphOvercast
4:00 AM43.0 °F41.0 °F91 %30.11 in4.0 miNorth (350°)4.5 mphMist
4:30 AM44.6 °F41.0 °F87 %30.09 in4.3 miNorth (10°)4.6 mphOvercast
5:00 AM44.0 °F41.0 °F87 %30.11 in3.0 miENE (60°)4.5 mphMist
5:00 AM42.8 °F41.0 °F93 %30.09 in3.1 miENE (60°)4.6 mphOvercast
5:30 AM42.8 °F41.0 °F93 %30.09 in3.1 miCalmOvercast
6:00 AM43.0 °F41.0 °F90 %30.13 in3.0 miCalmMist
6:00 AM42.8 °F41.0 °F93 %30.12 in3.1 miCalmOvercast
6:30 AM42.8 °F41.0 °F93 %30.12 in3.1 miVariable1.2 mphOvercast
7:00 AM43.0 °F41.0 °F90 %30.15 in3.0 miWNW (300°)2.2 mphMist
7:00 AM42.8 °F41.0 °F93 %30.12 in3.1 miVariable2.3 mphOvercast
7:30 AM42.8 °F41.0 °F93 %30.15 in3.1 miNW (320°)4.6 mphOvercast
8:00 AM44.0 °F42.0 °F89 %30.19 in3.0 miNW (320°)4.5 mphMist
8:00 AM42.8 °F41.0 °F93 %30.18 in6.2 miNW (320°)5.8 mphOvercast
8:30 AM44.6 °F41.0 °F87 %30.18 in3.7 miWNW (300°)6.9 mphOvercast
9:00 AM44.0 °F42.0 °F89 %30.21 in5.0 miENE (60°)4.5 mphMist
9:00 AM44.6 °F41.0 °F87 %30.18 in5.0 miNW (320°)4.6 mphOvercast
9:30 AM46.4 °F42.8 °F87 %30.18 in5.0 miNNW (340°)4.6 mphPartly Cloudy
10:00 AM47.0 °F42.0 °F79 %30.20 in9.0 miWest (280°)2.2 mphScattered Clouds
10:00 AM48.2 °F42.8 °F82 %30.18 in6.2 miVariable2.3 mphPartly Cloudy
10:30 AM48.2 °F42.8 °F82 %30.18 in6.2 miWSW (240°)4.6 mphPartly Cloudy
11:00 AM49.0 °F42.0 °F68 %30.22 in12.0 miWest (260°)2.2 mphScattered Clouds
11:00 AM48.2 °F41.0 °F76 %30.21 in6.2 miVariable1.2 mphPartly Cloudy
11:30 AM50.0 °F41.0 °F71 %30.21 in6.2 miWSW (250°)4.6 mphPartly Cloudy
12:00 PM50.0 °F41.0 °F71 %30.21 in6.2 miWSW (250°)4.6 mphPartly Cloudy
12:00 PM50.0 °F41.0 °F63 %30.22 in11.0 miWSW (250°)6.7 mphScattered Clouds
12:30 PM50.0 °F41.0 °F71 %30.21 in6.2 miWest (280°)8.1 mphPartly Cloudy
1:00 PM49.0 °F42.0 °F67 %30.22 in11.0 miWest (260°)6.7 mphScattered Clouds
1:00 PM50.0 °F41.0 °F71 %30.18 in6.2 miWest (260°)6.9 mphPartly Cloudy
1:30 PM50.0 °F42.8 °F76 %30.18 in6.2 miWest (260°)8.1 mphPartly Cloudy
2:00 PM49.0 °F42.0 °F68 %30.19 in9.0 miWest (260°)6.7 mphScattered Clouds
2:00 PM48.2 °F41.0 °F76 %30.18 in6.2 miWest (260°)6.9 mphPartly Cloudy
2:30 PM48.2 °F41.0 °F76 %30.15 in6.2 miWSW (250°)4.6 mphPartly Cloudy
3:00 PM48.2 °F41.0 °F76 %30.15 in6.2 miSW (230°)4.6 mphMostly Cloudy
3:30 PM48.2 °F41.0 °F76 %30.15 in6.2 miVariable2.3 mphMostly Cloudy
4:00 PM47.0 °F41.0 °F72 %30.17 in9.0 miSE (140°)4.5 mphMostly Cloudy
4:00 PM46.4 °F41.0 °F81 %30.15 in6.2 miSE (140°)4.6 mphMostly Cloudy
4:30 PM46.4 °F41.0 °F81 %30.12 in6.2 miESE (110°)4.6 mphMostly Cloudy
5:00 PM45.0 °F41.0 °F79 %30.12 in7.0 miESE (120°)6.7 mphScattered Clouds
5:00 PM44.6 °F41.0 °F87 %30.09 in6.2 miESE (120°)5.8 mphPartly Cloudy
5:30 PM44.6 °F39.2 °F81 %30.09 in5.0 miVariable2.3 mphFogFog
6:00 PM43.0 °F40.0 °F83 %30.12 in5.0 miSSE (150°)4.5 mphFogPatches of Fog
6:00 PM42.8 °F39.2 °F87 %30.09 in5.0 miVariable2.3 mphFogFog
6:30 PM44.6 °F41.0 °F87 %30.09 in4.3 miSE (140°)5.8 mphScattered Clouds
7:00 PM45.0 °F42.0 °F84 %30.12 in4.0 miESE (120°)2.2 mphMist
7:00 PM44.6 °F41.0 °F87 %30.09 in4.3 miVariable2.3 mphOvercast
7:30 PM44.6 °F41.0 °F87 %30.09 in4.3 miVariable2.3 mphOvercast
8:00 PM44.6 °F41.0 °F87 %30.09 in4.3 miVariable2.3 mphOvercast
8:30 PM44.6 °F41.0 °F87 %30.06 in5.0 miVariable2.3 mphOvercast
9:00 PM44.6 °F41.0 °F87 %30.09 in6.2 miVariable1.2 mphMostly Cloudy
9:30 PM44.6 °F41.0 °F87 %30.06 in6.2 miVariable1.2 mphMostly Cloudy
10:00 PM43.0 °F40.0 °F85 %30.08 in6.0 miENE (70°)2.2 mphPartly Cloudy
10:00 PM42.8 °F39.2 °F87 %30.06 in6.2 miVariable2.3 mphScattered Clouds
10:30 PM39.2 °F37.4 °F93 %30.06 in6.2 miVariable2.3 mphMostly Cloudy
11:00 PM42.8 °F41.0 °F93 %30.04 in6.2 miVariable2.3 mphMostly Cloudy
11:30 PM42.8 °F41.0 °F93 %30.04 in6.2 miVariable2.3 mphOvercast
Hourly data recorded from LDLO, located miles away from Rab, Croatia







STORIES FROM OUR PARTNERS